Regional Weather Roundup
Issued by NWS

Home | Current Version | Previous Version | Graphics & Text | Print | Product List | Glossary On
Versions: 1 2 3 4 5 6 7 8 9 10 11 12 13 14 15 16 17 18 19 20 21 22 23 24 25 26 27 28 29 30 31 32 33 34 35 36 37 38 39 40 41 42 43 44 45 46 47 48 49 50
000
ASUS45 KABQ 201510
RWRNM
NEW MEXICO REGIONAL WEATHER ROUNDUP
NATIONAL WEATHER SERVICE ALBUQUERQUE NM
900 AM MDT WED SEP 20 2017

NOTE: "FAIR" MEANS FEW OR NO CLOUDS BELOW 12,000 FEET AGL WITH NO
       SIGNIFICANT WEATHER OR OBSTRUCTIONS TO VISION.

      THIS PRODUCT IS RELEASED AS TWO VERSIONS.  ONE VERSION NEAR
      THE TOP OF THE HOUR CONTAINING PRELIMINARY DATA FROM ALBUQUERQUE
      AND OTHER STATIONS.  A FINAL VERSION WITH ADDITIONAL DATA IS
      ISSUED ABOUT 10 MINUTES AFTER THE HOUR.

NMZ501-503-504-510>518-201600-
NORTHWEST PLATEAU/NORTHCENTRAL MOUNTAINS

CITY           SKY/WX    TMP DP  RH WIND       PRES   REMARKS
FARMINGTON     FAIR      56  29  35 E8        30.06S
LOS ALAMOS     FAIR      62  27  26 NE5       30.19R
SANTA FE       FAIR      63  34  33 S3        30.13R
TAOS           FAIR      61  31  32 S6        30.20S
ANGEL FIRE     FAIR      55  28  34 SW5G17    30.22R

$$
NMZ402-403-502-505>509-201600-
WESTCENTRAL MOUNTAINS/SOUTHWEST MOUNTAINS

CITY           SKY/WX    TMP DP  RH WIND       PRES   REMARKS
GALLUP         FAIR      61  23  23 SW13      30.15S
GRANTS         FAIR      56  32  40 CALM      30.17R
SILVER CITY    FAIR      68  43  41 NW8       30.14S

$$
NMZ407-409-411-412-201600-
SOUTHERN DESERTS

CITY           SKY/WX    TMP DP  RH WIND       PRES   REMARKS
DEMING         FAIR      69  49  48 W8        30.09R
LAS CRUCES     FAIR      72  46  39 W12       30.09R
ALAMOGORDO     FAIR      75  45  33 S7        30.06R
T OR C         FAIR      73  37  27 W8        30.07R

$$
NMZ519>523-201600-
CENTRAL VALLEYS/CENTRAL HIGHLANDS

CITY           SKY/WX    TMP DP  RH WIND       PRES   REMARKS
ALBUQUERQUE    FAIR      67  37  33 S5        30.10R
DOUBLE EAGLE   MOSUNNY   66  36  32 S6        30.12R
MORIARTY ARPT  FAIR      69  36  30 W9        30.14S
CLINES CORNERS FAIR      64  34  32 NW25      30.15R
BELEN          FAIR      69  35  28 S5        30.10R
SOCORRO          N/A     69  36  30 E3        30.08R

$$
NMZ524>526-539-540-201600-
SOUTHCENTRAL MOUNTAINS

CITY           SKY/WX    TMP DP  RH WIND       PRES   REMARKS
RUIDOSO        FAIR      66  41  39 W10       30.19S

$$
NMZ527>531-201600-
NORTHEAST HIGHLANDS/NORTHEAST PLAINS

CITY           SKY/WX    TMP DP  RH WIND       PRES   REMARKS
LAS VEGAS      FAIR      64  27  24 E6        30.12R
RATON          FAIR      58  30  34 E13       30.09R
CLAYTON        FAIR      59  28  30 N13       30.05R

$$
NMZ532>537-201600-
EASTCENTRAL PLAINS

CITY           SKY/WX    TMP DP  RH WIND       PRES   REMARKS
SANTA ROSA     FAIR      71  36  27 N7        30.02R
TUCUMCARI      FAIR      64  35  34 NE8       30.01R
CANNON AFB     FAIR      67  40  37 N7        30.02R
CLOVIS AIRPORT FAIR      63  40  42 N12       30.01R

$$
NMZ028-029-538-201600-
SOUTHEAST PLAINS

CITY           SKY/WX    TMP DP  RH WIND       PRES   REMARKS
ROSWELL        FAIR      73  46  38 S6        29.98R
ARTESIA        FAIR      81  46  30 W12       29.97S
CARLSBAD       FAIR      84  51  31 SW14      29.94S
HOBBS          SUNNY     79  52  38 SW6       29.98R


$$




USA.gov is the U.S. government's official web portal to all federal, state and local government web resources and services.